Lone Rock, WI

6:35 PM CST on February 26, 2017 (GMT -0600)
Tri-County Regional

Weather History for KLNR - February, 2015

Change the Weather History Date:

Tuesday, February 3, 2015

  Actual Average Record
Temperature  
Mean Temperature 4 °F -  
Max Temperature 17 °F 29 °F 42 °F (1999)
Min Temperature -8 °F 13 °F -24 °F (2014)
Degree Days  
Heating Degree Days 60    
Moisture  
Dew Point 5 °F    
Average Humidity 80    
Maximum Humidity 88    
Minimum Humidity 67    
Precipitation  
Precipitation 0.07 in - - ()
Sea Level Pressure  
Sea Level Pressure 30.09 in    
Wind  
Wind Speed 1 mph (North)    
Max Wind Speed 8 mph    
Max Gust Speed -    
Visibility 7 miles    
Events Fog , Snow    
Averages and records for this station are not official NWS values.
T = Trace of Precipitation, MM = Missing Value Source: NWS Daily Summary

Daily Weather History Graph

Daily Weather History Graph

Search for Another Location

Airport or City:

Trip Planner

Search our weather history database for the weather conditions in past years. The results will help you decide how hot, cold, wet, or windy it might be!

Date:

Astronomy

Feb. 03, 2015 Rise Set
Actual Time 7:14 AM CST 5:15 PM CST
Civil Twilight 6:44 AM CST 5:45 PM CST
Nautical Twilight 6:10 AM CST 6:19 PM CST
Astronomical Twilight 5:36 AM CST 6:52 PM CST
Moon 5:22 PM CST (2/3) 6:41 AM CST (2/3)
Length of Visible Light 11h 01m
Length of Day
10h 01m
Full, 100% of the Moon is Illuminated
Feb 3
Full
Feb 3
Full
Feb 11
Last Quarter
Feb 18
New
Feb 25
First Quarter

Hourly Weather History & Observations

Time (CST) Temp. Windchill Dew Point Humidity Pressure Visibility Wind Dir Wind Speed Gust Speed Precip Events Conditions
12:56 AM -2.9 °F - -8.0 °F 79% 30.16 in 10.0 mi Calm Calm - N/A   Clear
1:56 AM -4.0 °F -12.4 °F -8.0 °F 83% 30.14 in 10.0 mi NE 3.5 mph - N/A   Clear
2:56 AM -5.1 °F - -9.0 °F 83% 30.14 in 10.0 mi Calm Calm - N/A   Clear
3:56 AM -6.0 °F - -9.9 °F 83% 30.13 in 10.0 mi Calm Calm - N/A   Clear
4:56 AM -5.1 °F - -9.9 °F 80% 30.14 in 10.0 mi Calm Calm - N/A   Clear
5:56 AM -8.0 °F - -13.0 °F 79% 30.14 in 10.0 mi Calm Calm - N/A   Clear
6:56 AM -8.0 °F - -11.9 °F 83% 30.14 in 10.0 mi Calm Calm - N/A   Clear
7:56 AM -6.0 °F -14.7 °F -11.0 °F 79% 30.15 in 10.0 mi East 3.5 mph - N/A   Clear
8:56 AM -2.0 °F - -6.0 °F 83% 30.17 in 10.0 mi Calm Calm - N/A   Clear
9:56 AM 3.9 °F - -2.0 °F 76% 30.17 in 10.0 mi Calm Calm - N/A   Clear
10:56 AM 7.0 °F - 1.0 °F 77% 30.16 in 10.0 mi Calm Calm - N/A   Partly Cloudy
11:56 AM 12.9 °F - 5.0 °F 71% 30.14 in 10.0 mi Calm Calm - N/A   Overcast
12:56 PM 14.0 °F 8.2 °F 5.0 °F 67% 30.09 in 10.0 mi ENE 3.5 mph - N/A   Overcast
1:56 PM 16.0 °F 10.4 °F 7.0 °F 68% 30.06 in 10.0 mi East 3.5 mph - N/A   Overcast
2:29 PM 16.0 °F - 8.1 °F 71% 30.03 in 2.5 mi Calm Calm - 0.00 in Snow Light Snow
2:37 PM 16.0 °F - 9.0 °F 74% 30.03 in 1.0 mi Calm Calm - 0.00 in Snow Light Snow
2:49 PM 16.0 °F - 10.9 °F 81% 30.03 in 0.5 mi Calm Calm - 0.00 in Snow Snow
2:56 PM 16.0 °F 10.4 °F 12.0 °F 84% 30.07 in 0.5 mi Variable 3.5 mph - 0.00 in Fog , Snow Light Snow
3:11 PM 16.0 °F 5.3 °F 12.0 °F 84% 30.03 in 0.5 mi SSW 8.1 mph - 0.01 in Fog , Snow Snow
3:56 PM 16.0 °F - 12.0 °F 84% 30.08 in 0.5 mi Calm Calm - 0.03 in Fog , Snow Snow
4:04 PM 16.0 °F - 12.9 °F 88% 30.05 in 0.2 mi Calm Calm - 0.00 in Fog , Snow Heavy Snow
4:24 PM 16.0 °F 10.4 °F 12.9 °F 88% 30.05 in 0.5 mi NW 3.5 mph - 0.02 in Fog , Snow Snow
4:39 PM 17.1 °F 11.7 °F 12.9 °F 84% 30.04 in 0.8 mi NNW 3.5 mph - 0.02 in Snow Light Snow
4:56 PM 17.1 °F 11.7 °F 12.9 °F 84% 30.09 in 1.0 mi NNW 3.5 mph - 0.03 in Snow Light Snow
5:10 PM 17.1 °F 11.7 °F 12.9 °F 84% 30.04 in 2.0 mi NNW 3.5 mph - 0.00 in Snow Light Snow
5:20 PM 17.1 °F 10.0 °F 12.9 °F 84% 30.04 in 4.0 mi North 4.6 mph - 0.00 in Snow Light Snow
5:56 PM 17.1 °F 10.0 °F 12.0 °F 81% 30.08 in 6.0 mi North 4.6 mph - 0.01 in   Haze
6:24 PM 17.1 °F 10.0 °F 12.0 °F 81% 30.03 in 9.0 mi North 4.6 mph - N/A   Overcast
6:56 PM 17.1 °F 11.7 °F 12.0 °F 81% 30.07 in 10.0 mi NE 3.5 mph - N/A   Overcast
7:56 PM 17.1 °F - 12.0 °F 81% 30.08 in 10.0 mi Calm Calm - N/A   Overcast
8:56 PM 17.1 °F - 12.0 °F 81% 30.08 in 10.0 mi Calm Calm - N/A   Overcast
9:24 PM 17.1 °F - 12.9 °F 84% 30.05 in 10.0 mi Calm Calm - N/A   Overcast
9:35 PM 17.1 °F - 12.0 °F 81% 30.04 in 10.0 mi Calm Calm - N/A   Overcast
9:56 PM 17.1 °F - 12.0 °F 81% 30.08 in 10.0 mi Calm Calm - N/A   Overcast
10:56 PM 17.1 °F 10.0 °F 12.0 °F 81% 30.07 in 10.0 mi NNW 4.6 mph - N/A   Overcast
11:56 PM 17.1 °F 10.0 °F 10.9 °F 77% 30.07 in 10.0 mi NW 4.6 mph - N/A   Overcast